DF9PM-13 Weather Reports


time (UTC)temp
C
wind
direction
speed
KPH
gust
KPH
rain 1hr
cm
rain 24hr
cm
rain mn
cm
humidity
%
barometer
mb
20260506103112 16 220 14.5 0.0 0.00 0.00 0.00 93 1006.0
20260506102612 16 220 14.5 0.0 0.00 0.00 0.00 97 1006.0
20260506102112 16 220 14.5 0.0 0.00 0.00 0.00 95 1006.1
20260506101612 16 220 14.5 0.0 0.00 0.00 0.00 97 1006.0
20260506101112 16 220 14.5 0.0 0.00 0.00 0.00 98 1006.0
20260506100612 16 220 14.5 0.0 0.00 0.00 0.00 97 1006.0
20260506100112 16 220 14.5 0.0 0.00 0.00 0.00 94 1006.0
20260506095612 16 220 14.5 0.0 0.00 0.00 0.00 94 1006.0
20260506095112 16 220 14.5 0.0 0.00 0.00 0.00 95 1005.9
20260506094612 17 220 14.5 0.0 0.00 0.00 0.00 90 1006.0
20260506094112 16 220 14.5 0.0 0.00 0.00 0.00 96 1005.9
20260506093612 17 200 12.9 0.0 0.00 0.00 0.00 10 1006.0
20260506093112 17 200 12.9 0.0 0.00 0.00 0.00 10 1005.9
20260506092612 16 200 12.9 0.0 0.00 0.00 0.00 10 1006.0
20260506092112 17 200 12.9 0.0 0.00 0.00 0.00 10 1005.9
20260506091612 16 200 12.9 0.0 0.00 0.00 0.00 10 1006.0
20260506091111 16 200 12.9 0.0 0.00 0.00 0.00 10 1006.0
20260506090611 16 210 11.3 0.0 0.00 0.00 0.00 10 1006.1
20260506090111 16 210 11.3 0.0 0.00 0.00 0.00 10 1006.0
20260506085611 16 210 11.3 0.0 0.00 0.00 0.00 10 1006.0
20260506085111 16 210 11.3 0.0 0.00 0.00 0.00 10 1005.9
20260506084611 16 210 11.3 0.0 0.00 0.00 0.00 10 1005.9
20260506084111 16 210 12.9 0.0 0.00 0.00 0.00 10 1005.9
20260506083611 16 210 12.9 0.0 0.00 0.00 0.00 10 1005.9
20260506083111 16 210 12.9 0.0 0.00 0.00 0.00 10 1005.8
20260506082611 16 210 12.9 0.0 0.00 0.00 0.00 10 1005.8
20260506082111 16 210 12.9 0.0 0.00 0.00 0.00 10 1005.9
20260506081611 16 210 12.9 0.0 0.00 0.00 0.00 10 1005.8
20260506081111 16 210 12.9 0.0 0.00 0.00 0.00 10 1005.7
20260506080611 16 210 12.9 0.0 0.00 0.00 0.00 10 1005.7
20260506080111 16 210 12.9 0.0 0.00 0.00 0.00 10 1005.7
20260506073110 15 200 11.3 0.0 0.00 0.00 0.00 10 1005.8
20260506072610 16 200 11.3 0.0 0.00 0.00 0.00 10 1005.8
20260506072110 15 200 11.3 0.0 0.00 0.00 0.00 10 1005.8
20260506071609 15 200 11.3 0.0 0.00 0.00 0.00 10 1005.8
20260506071109 182 200 11.3 0.0 0.00 0.00 0.00 10 1005.7
20260506070609 182 190 9.7 0.0 0.00 0.00 0.00 10 1283.7
20260506070109 15 190 9.7 0.0 0.00 0.00 0.00 10 1005.7
20260506062109 14 190 9.7 0.0 0.00 0.00 0.00 10 1005.7
20260506061609 14 190 9.7 0.0 0.00 0.00 0.00 10 1005.7
20260506061109 14 180 6.4 0.0 0.00 0.00 0.00 10 1005.7
20260506060608 14 180 6.4 0.0 0.00 0.00 0.00 10 1005.7
20260506060108 13 180 6.4 0.0 0.00 0.00 0.00 10 1005.6
20260506051108 13 200 6.4 0.0 0.00 0.00 0.00 10 1005.6
20260506050608 13 200 8.0 0.0 0.00 0.00 0.00 10 1005.6
20260506050108 13 200 8.0 0.0 0.00 0.00 0.00 10 1005.7
20260506045108 13 200 8.0 0.0 0.00 0.00 0.00 10 1005.7
20260506044608 13 200 8.0 0.0 0.00 0.00 0.00 10 1005.7
20260506044108 14 190 8.0 0.0 0.00 0.00 0.00 10 1005.7
20260506043607 13 190 8.0 0.0 0.00 0.00 0.00 10 1005.7
20260506043107 13 190 8.0 0.0 0.00 0.00 0.00 10 1005.7
20260506042607 13 190 8.0 0.0 0.00 0.00 0.00 10 1005.8
20260506042107 13 190 8.0 0.0 0.00 0.00 0.00 10 1005.8
20260506041607 13 190 8.0 0.0 0.00 0.00 0.00 10 1005.7
20260506041107 13 190 6.4 0.0 0.00 0.00 0.00 10 1005.7
20260506040607 13 190 6.4 0.0 0.00 0.00 0.00 10 1005.7
20260506040107 13 190 6.4 0.0 0.00 0.00 0.00 10 1005.8
20260506035607 13 190 6.4 0.0 0.00 0.00 0.00 10 1005.9
20260506035107 13 190 6.4 0.0 0.00 0.00 0.00 10 1005.9
20260506034607 13 190 6.4 0.0 0.00 0.00 0.00 10 1005.8
20260506034107 13 190 6.4 0.0 0.00 0.00 0.00 10 1005.8
20260506033607 13 180 8.0 0.0 0.00 0.00 0.00 10 1005.9
20260506033107 13 180 8.0 0.0 0.00 0.00 0.00 10 1005.8
20260506032607 13 180 8.0 0.0 0.00 0.00 0.00 10 1005.9
20260506032107 13 180 8.0 0.0 0.00 0.00 0.00 10 1005.9
20260506031606 13 180 8.0 0.0 0.00 0.00 0.00 10 1006.0
20260506031107 13 180 8.0 0.0 0.00 0.00 0.00 10 1006.0
20260506030606 13 180 8.0 0.0 0.00 0.00 0.00 10 1006.0
20260506030106 13 190 8.0 0.0 0.00 0.00 0.00 10 1006.0
20260506025606 13 190 8.0 0.0 0.00 0.00 0.00 10 1005.9
20260506025106 13 190 8.0 0.0 0.00 0.00 0.00 10 1005.9
20260506024606 13 190 8.0 0.0 0.00 0.00 0.00 10 1005.9
20260506024106 13 190 8.0 0.0 0.00 0.00 0.00 10 1005.9
20260506023606 13 190 8.0 0.0 0.00 0.00 0.00 10 1005.9
20260506023106 13 190 6.4 0.0 0.00 0.00 0.00 10 1005.9
20260506022606 13 190 6.4 0.0 0.00 0.00 0.00 10 1005.9
20260506022106 13 190 6.4 0.0 0.00 0.00 0.00 10 1005.9
20260506021606 13 190 6.4 0.0 0.00 0.00 0.00 10 1006.0
20260506021106 13 190 6.4 0.0 0.00 0.00 0.00 10 1006.0
20260506020606 13 210 8.0 0.0 0.00 0.00 0.00 10 1006.1
20260506020106 13 210 8.0 0.0 0.00 0.00 0.00 10 1006.1
20260506015606 13 210 8.0 0.0 0.00 0.00 0.00 10 1006.1
20260506015106 13 210 8.0 0.0 0.00 0.00 0.00 10 1006.1
20260506014606 13 210 8.0 0.0 0.00 0.00 0.00 10 1006.1
20260506014105 13 210 8.0 0.0 0.00 0.00 0.00 10 1006.1
20260506013605 13 200 6.4 0.0 0.00 0.00 0.00 10 1006.2
20260506013105 13 200 6.4 0.0 0.00 0.00 0.00 10 1006.3
20260506012605 13 200 6.4 0.0 0.00 0.00 0.00 10 1006.3
20260506012105 13 200 6.4 0.0 0.00 0.00 0.00 10 1006.3
20260506011605 13 200 6.4 0.0 0.00 0.00 0.00 10 1006.4
20260506011105 13 200 6.4 0.0 0.00 0.00 0.00 10 1006.4
20260506010605 13 190 9.7 0.0 0.00 0.00 0.00 10 1006.3
20260506010105 13 190 9.7 0.0 0.00 0.00 0.00 10 1006.4
20260506005605 13 190 9.7 0.0 0.00 0.00 0.00 10 1006.4
20260506005105 13 190 9.7 0.0 0.00 0.00 0.00 10 1006.3
20260506004605 13 190 9.7 0.0 0.00 0.00 0.00 10 1006.3
20260506004105 13 190 9.7 0.0 0.00 0.00 0.00 10 1006.4
20260506003605 13 190 9.7 0.0 0.00 0.00 0.00 10 1006.4
20260506003105 13 190 11.3 0.0 0.00 0.00 0.00 10 1006.3
20260506002605 13 190 11.3 0.0 0.00 0.00 0.00 10 1006.4
20260506002105 14 190 11.3 0.0 0.00 0.00 0.00 10 1006.3
20260506001604 14 190 11.3 0.0 0.00 0.00 0.00 10 1006.4
20260506001105 14 180 8.0 0.0 0.00 0.00 0.00 10 1006.4
20260506000604 14 180 8.0 0.0 0.00 0.00 0.00 10 1006.4
20260506000104 14 180 8.0 0.0 0.00 0.00 0.00 10 1006.4
20260505235604 14 180 8.0 0.0 0.00 0.00 0.00 10 1006.5
20260505235104 14 180 8.0 0.0 0.00 0.00 0.00 10 1006.5
20260505234604 14 180 8.0 0.0 0.00 0.00 0.00 10 1006.5
20260505234104 14 170 8.0 0.0 0.00 0.00 0.00 10 1006.5
20260505233604 14 170 8.0 0.0 0.00 0.00 0.00 10 1006.5
20260505233104 14 170 8.0 0.0 0.00 0.00 0.00 10 1006.5
20260505232604 14 170 8.0 0.0 0.00 0.00 0.00 10 1006.6
20260505232104 14 170 8.0 0.0 0.00 0.00 0.00 10 1006.6
20260505231603 14 170 8.0 0.0 0.00 0.00 0.00 10 1006.6
20260505231103 14 170 9.7 0.0 0.00 0.00 0.00 10 1006.6
20260505230603 14 170 9.7 0.0 0.00 0.00 0.00 10 1006.6
20260505225603 14 170 9.7 0.0 0.00 0.00 0.00 10 1006.7
20260505225103 14 170 9.7 0.0 0.00 0.00 0.00 10 1006.7
20260505224603 14 170 9.7 0.0 0.00 0.00 0.00 10 1006.7
20260505224103 14 170 9.7 0.0 0.00 0.00 0.00 10 1006.7
20260505223603 14 170 9.7 0.0 0.00 0.00 0.00 10 1006.8
20260505223103 14 170 6.4 0.0 0.00 0.00 0.00 10 1006.8
20260505222602 14 170 6.4 0.0 0.00 0.00 0.00 10 1006.7
20260505222102 14 170 6.4 0.0 0.00 0.00 0.00 10 1006.8
20260505221602 14 170 6.4 0.0 0.00 0.00 0.00 10 1006.8
20260505221102 15 170 3.2 0.0 0.00 0.00 0.00 10 1006.8
20260505220602 15 170 3.2 0.0 0.00 0.00 0.00 10 1006.8
20260505220103 15 170 3.2 0.0 0.00 0.00 0.00 10 1006.8
20260505215602 15 170 3.2 0.0 0.00 0.00 0.00 10 1006.9
20260505215102 15 170 3.2 0.0 0.00 0.00 0.00 10 1006.9
20260505214602 15 170 3.2 0.0 0.00 0.00 0.00 10 1006.9
20260505214102 15 170 3.2 0.0 0.00 0.00 0.00 10 1006.9
20260505213602 15 180 3.2 0.0 0.00 0.00 0.00 10 1006.9
20260505213102 15 180 3.2 0.0 0.00 0.00 0.00 10 1006.9
20260505212602 15 180 3.2 0.0 0.00 0.00 0.00 10 1006.9
20260505212102 15 180 3.2 0.0 0.00 0.00 0.00 10 1006.9
20260505211602 15 180 3.2 0.0 0.00 0.00 0.00 10 1007.0
20260505211102 15 180 3.2 0.0 0.00 0.00 0.00 10 1007.1
20260505210602 15 180 3.2 0.0 0.00 0.00 0.00 10 1007.1
20260505205601 15 180 3.2 0.0 0.00 0.00 0.00 10 1007.1
20260505205101 15 180 3.2 0.0 0.00 0.00 0.00 10 1007.1
20260505204601 15 180 3.2 0.0 0.00 0.00 0.00 10 1007.1
20260505204101 15 190 1.6 0.0 0.00 0.00 0.00 10 1007.1
20260505203601 15 190 1.6 0.0 0.00 0.00 0.00 10 1007.1
20260505203101 15 190 1.6 0.0 0.00 0.00 0.00 10 1007.1
20260505202601 15 190 1.6 0.0 0.00 0.00 0.00 10 1007.2
20260505202101 15 190 1.6 0.0 0.00 0.00 0.00 10 1007.1
20260505201601 15 190 1.6 0.0 0.00 0.00 0.00 10 1007.2
20260505201101 15 180 3.2 0.0 0.00 0.00 0.00 10 1007.2
20260505200601 15 180 3.2 0.0 0.00 0.00 0.00 10 1007.2
20260505200101 16 180 3.2 0.0 0.00 0.00 0.00 10 1007.2
20260505195601 16 180 3.2 0.0 0.00 0.00 0.00 10 1007.2
20260505195101 15 180 3.2 0.0 0.00 0.00 0.00 10 1007.2
20260505194601 15 180 3.2 0.0 0.00 0.00 0.00 10 1007.2
20260505194100 15 180 3.2 0.0 0.00 0.00 0.00 10 1007.2
20260505193600 15 190 1.6 0.0 0.00 0.00 0.00 10 1007.1
20260505193101 15 190 1.6 0.0 0.00 0.00 0.00 10 1007.1
20260505192600 15 190 1.6 0.0 0.00 0.00 0.00 10 1007.1
20260505192100 16 190 1.6 0.0 0.00 0.00 0.00 10 1007.0
20260505191600 16 0 0.0 0.0 0.00 0.00 0.00 10 1007.0
20260505191100 16 0 0.0 0.0 0.00 0.00 0.00 10 1007.0
20260505190600 16 0 1.6 0.0 0.00 0.00 0.00 10 1007.0
20260505185600 16 0 1.6 0.0 0.00 0.00 0.00 10 1006.9
20260505185100 16 0 1.6 0.0 0.00 0.00 0.00 10 1006.9
20260505184600 16 0 1.6 0.0 0.00 0.00 0.00 10 1006.9
20260505184100 16 210 3.2 0.0 0.00 0.00 0.00 10 1006.9
20260505183600 16 210 3.2 0.0 0.00 0.00 0.00 10 1006.9
20260505183100 16 210 3.2 0.0 0.00 0.00 0.00 10 1006.9
20260505182600 16 210 3.2 0.0 0.00 0.00 0.00 10 1007.0
20260505182100 16 210 3.2 0.0 0.00 0.00 0.00 10 1006.9
20260505181559 16 210 3.2 0.0 0.00 0.00 0.00 10 1006.9
20260505181059 16 210 3.2 0.0 0.00 0.00 0.00 10 1006.9
20260505180559 16 230 3.2 0.0 0.00 0.00 0.00 10 1006.9
20260505180059 16 230 3.2 0.0 0.00 0.00 0.00 10 1006.9
20260505175600 16 230 3.2 0.0 0.00 0.00 0.00 10 1006.9
20260505175059 16 230 3.2 0.0 0.00 0.00 0.00 10 1006.9
20260505174559 16 230 3.2 0.0 0.00 0.00 0.00 10 1007.0
20260505174059 16 250 4.8 0.0 0.00 0.00 0.00 10 1007.0
20260505173559 16 250 4.8 0.0 0.00 0.00 0.00 10 1007.0
20260505173059 16 250 4.8 0.0 0.00 0.00 0.00 10 1007.0
20260505172559 16 250 4.8 0.0 0.00 0.00 0.00 10 1007.1
20260505172059 16 250 4.8 0.0 0.00 0.00 0.00 10 1007.1
20260505171559 16 250 4.8 0.0 0.00 0.00 0.00 10 1007.1
20260505171059 16 250 4.8 0.0 0.00 0.00 0.00 10 1007.1
20260505170559 16 260 6.4 0.0 0.00 0.00 0.00 10 1007.1
20260505170058 16 260 6.4 0.0 0.00 0.00 0.00 10 1007.1
20260505165558 16 260 6.4 0.0 0.00 0.00 0.00 10 1007.2
20260505165059 16 260 6.4 0.0 0.00 0.00 0.00 10 1007.2
20260505164558 16 0 6.4 0.0 0.00 0.00 0.00 10 1007.3
20260505164058 16 260 6.4 0.0 0.00 0.00 0.00 10 1007.3
20260505163558 16 0 6.4 0.0 0.00 0.00 0.00 10 1007.3
20260505163058 16 0 6.4 0.0 0.00 0.00 0.00 10 1007.3
20260505162558 16 250 8.0 0.0 0.00 0.00 0.00 10 1007.3
20260505162058 16 250 8.0 0.0 0.00 0.00 0.00 10 1007.4
20260505161558 16 250 8.0 0.0 0.00 0.00 0.00 10 1007.4
20260505161058 16 250 11.3 0.0 0.00 0.00 0.00 10 1007.4
20260505160558 16 250 11.3 0.0 0.00 0.00 0.00 10 1007.4
20260505153058 16 250 9.7 0.0 0.00 0.00 0.00 10 1007.7
20260505152557 16 250 9.7 0.0 0.00 0.00 0.00 10 1007.6
20260505152057 16 250 9.7 0.0 0.00 0.00 0.00 10 1007.7
20260505151558 16 250 9.7 0.0 0.00 0.00 0.00 10 1007.7
20260505151057 16 240 6.4 0.0 0.00 0.00 0.00 10 1007.7
20260505150557 16 240 6.4 0.0 0.00 0.00 0.00 10 1007.7
20260505140557 16 240 14.5 0.0 0.00 0.00 0.00 10 1007.7
20260505124556 20 230 4.8 0.0 0.00 0.00 0.00 78 1007.8
20260505124056 18 230 4.8 0.0 0.00 0.00 0.00 86 1007.9
20260505123556 18 220 6.4 0.0 0.00 0.00 0.00 83 1007.9
20260505123056 20 220 6.4 0.0 0.00 0.00 0.00 77 1007.9
20260505122555 18 220 6.4 0.0 0.00 0.00 0.00 80 1008.0
20260505122055 19 220 6.4 0.0 0.00 0.00 0.00 73 1007.9
20260505121555 20 220 6.4 0.0 0.00 0.00 0.00 67 1007.8
20260505121055 19 0 3.2 0.0 0.00 0.00 0.00 66 1007.8
20260505120555 20 0 3.2 0.0 0.00 0.00 0.00 61 1007.9
20260505120055 21 0 3.2 0.0 0.00 0.00 0.00 60 1007.8
20260505115555 20 0 3.2 0.0 0.00 0.00 0.00 63 1007.9
20260505115055 20 0 3.2 0.0 0.00 0.00 0.00 64 1007.9
20260505114555 21 0 3.2 0.0 0.00 0.00 0.00 57 1007.9
20260505114055 20 0 3.2 0.0 0.00 0.00 0.00 59 1007.9
20260505113555 21 0 3.2 0.0 0.00 0.00 0.00 54 1008.0
20260505113055 22 0 3.2 0.0 0.00 0.00 0.00 52 1008.0
20260505112555 22 0 3.2 0.0 0.00 0.00 0.00 50 1008.1
20260505112055 21 0 3.2 0.0 0.00 0.00 0.00 49 1008.1
20260505111555 21 220 4.8 0.0 0.00 0.00 0.00 52 1008.1
20260505111055 22 220 3.2 0.0 0.00 0.00 0.00 49 1008.2
20260505110555 22 220 3.2 0.0 0.00 0.00 0.00 49 1008.2